User: anonymous   Login
Location: Unspecified
(0.0000°N, 0.0000°E)
Time: 09:59:56
(UTC+00:00)
Language:

SOICAL CONE - Orbit

View from above orbital plane
View from above orbital plane
View from above satellite
View from above satellite

Ground track
Ground track

The orbit data is extracted from the following two-line orbital elements,

1 04132U 69082K   18017.32855559  .00000142  00000-0  86194-4 0  9993
2 04132  69.9968 342.1200 0008176 352.1478   7.9513 14.24294620483164
Epoch (UTC): 17 January 2018 07:53:07
Eccentricity: 0.0008176
inclination: 69.9968°
perigee height: 805 km
apogee height: 817 km
right ascension of ascending node: 342.1200°
argument of perigee: 352.1478°
revolutions per day: 14.24294620
mean anomaly at epoch: 7.9513°
orbit number at epoch: 48316

The dashed part of the orbit path shows where the satellite is in the earth's shadow,  

DLR